DELTA 1 DEB, 7180

Orbit data source: Space-Track

DELTA 1 DEB, 7180 is space debris in SSO originally from a launch on Tue, 06 Nov 1973 UTC launched from the Air Force Western Test Range (AFWTR). Debris objects in space refer to the collection of defunct objects orbiting the Earth. Examples of debris include non-operational satellites, rocket bodies, and fragments generated from explosions, collisions, or faulty payload assembly.

Loading next visibility...
Identifier
7180, 1973-086ER
Orbit
SSO
Country
Flag of USUS
Related business
Manufacturer
Unknown
Mission
Spacecraft
Bus & Motor
Unknown
Mass
Unknown
Launch date (UTC)
1973-11-06 (53 years ago)
Launch vehicle
Unknown
Launch site
Air Force Western Test Range (AFWTR)
Object type
Payload
Rocket body
Debris
Shape & HBR
Unknown shape, 0.1 m
Radar Cross Section
Medium (>0.1 m² and <1 m²)

Expand to show TLE details & history
Last TLE update: 12 hours ago

TLE from 12 hours ago
0 DELTA 1 DEB
1 07180U 73086ER  26263.28197389  .00000926  00000-0  41344-2 0  9991
2 07180 102.2393  16.2756 0146715 316.0839  70.4507 12.79525235452857
Epoch: 2026-09-20T06:46Z
TLE epoch observation values (Epoch: 2026-09-20T06:46:02.544Z)
Latitude
27.47491°
Longitude
-90.85782°
Altitude
1,310.036 km
Speed
7.221 km/s
True Right ascension
00h 39m 19s
True Declination
27° 20' 40"
Sunlit
Object was in full shadow at epoch
Visualization orbit readout
Latitude
Unknown
Longitude
Unknown
Altitude
Unknown
Speed
Unknown
Apparent Right ascension
Unknown
Apparent Declination
Unknown
Sunlit
N/A
Visualization observer readout
Local Sidereal Time
11:57:30
Azimuth
Unknown
Elevation
Unknown
Doppler factor
Unknown
Orbital elements
Apogee altitude
1,454.167 km
Perigee altitude
1,227.667 km
Semi-major axis
7,719.054 km
Eccentricity
0.01467
Inclination
102.2393°
RAAN
16.2756°
Arg. of periapsis
316.0839°
True anomaly
72.04459°
Mean anomaly
70.4507°
Eccentric anomaly
71.24669°
Mean motion
3.20035 °/min
Orbital period
112.49 mins
BSTAR
0.0041344
Loading maneuver chart data...
Computing Atmospheric mass density...
Loading historical data...
Loading historical data...
Loading historical data...
Loading historical data...
Loading historical data...
Loading historical data...
Loading historical data...

Documentation

Showing up to 5 results
|